McCall, ID

9:38 AM MST on November 20, 2017 (GMT -0700)
McCall

Weather History for KMYL - October, 2012

Change the Weather History Date:

Wednesday, October 31, 2012

  Actual Average Record
Temperature  
Mean Temperature 46 °F 35 °F  
Max Temperature 61 °F 47 °F 67 °F (1937)
Min Temperature 31 °F 23 °F 1 °F (2002)
Degree Days  
Heating Degree Days 19 30  
Month to date heating degree days 765 778  
Since 1 July heating degree days 1089 1543  
Cooling Degree Days 0 0  
Month to date cooling degree days 0 0  
Year to date cooling degree days 172 25  
Moisture  
Dew Point 35 °F    
Average Humidity 66    
Maximum Humidity 100    
Minimum Humidity 32    
Precipitation  
Precipitation 0.00 in 0.07 in 0.87 in (1938)
Month to date precipitation 3.22 1.40  
Year to date precipitation 21.53 15.32  
Sea Level Pressure  
Sea Level Pressure 29.96 in    
Wind  
Wind Speed 3 mph (NE)    
Max Wind Speed 29 mph    
Max Gust Speed 38 mph    
Visibility 10 miles    
Events      
T = Trace of Precipitation, MM = Missing Value Source: NWS Daily Summary

Daily Weather History Graph

Daily Weather History Graph

Search for Another Location

Airport or City:

Trip Planner

Search our weather history database for the weather conditions in past years. The results will help you decide how hot, cold, wet, or windy it might be!

Date:

Astronomy

Oct. 31, 2012 Rise Set
Actual Time 8:22 AM MDT 6:33 PM MDT
Civil Twilight 7:51 AM MDT 7:03 PM MDT
Nautical Twilight 7:16 AM MDT 7:38 PM MDT
Astronomical Twilight 6:42 AM MDT 8:12 PM MDT
Moon 7:42 PM MDT (10/31) 10:11 AM MDT (10/31)
Length of Visible Light 11h 12m
Length of Day
10h 11m
Full, 97% of the Moon is Illuminated
Oct 31
Full
Nov 6
Last Quarter
Nov 13
New
Nov 20
First Quarter
Nov 28
Full

Hourly Weather History & Observations

Time (MDT) Temp. Windchill Dew Point Humidity Pressure Visibility Wind Dir Wind Speed Gust Speed Precip Events Conditions
12:51 AM 37.9 °F - 36.0 °F 93% 30.06 in 10.0 mi Calm Calm - N/A   Clear
1:51 AM 37.0 °F 33.3 °F 35.1 °F 93% 30.04 in 10.0 mi NNE 4.6 mph - N/A   Clear
2:51 AM 36.0 °F - 35.1 °F 97% 30.01 in 10.0 mi Calm Calm - N/A   Clear
3:51 AM 36.0 °F 33.3 °F 34.0 °F 93% 30.01 in 10.0 mi NE 3.5 mph - N/A   Clear
4:51 AM 36.0 °F - 35.1 °F 97% 30.00 in 10.0 mi Calm Calm - N/A   Clear
5:51 AM 36.0 °F - 34.0 °F 93% 30.00 in 10.0 mi Calm Calm - N/A   Clear
6:51 AM 33.1 °F - 32.0 °F 96% 30.01 in 10.0 mi Calm Calm - N/A   Clear
7:51 AM 33.1 °F - 32.0 °F 96% 30.02 in 10.0 mi Calm Calm - N/A   Clear
8:51 AM 30.9 °F - 28.9 °F 92% 30.05 in 8.0 mi Calm Calm - N/A   Clear
9:51 AM 34.0 °F - 33.1 °F 96% 30.05 in 9.0 mi Calm Calm - N/A   Clear
10:51 AM 43.0 °F - 37.9 °F 82% 30.02 in 10.0 mi Calm Calm - N/A   Clear
11:51 AM 48.0 °F - 39.0 °F 71% 29.99 in 10.0 mi Calm Calm - N/A   Clear
12:51 PM 53.1 °F - 35.1 °F 50% 29.96 in 10.0 mi SE 3.5 mph - N/A   Clear
1:51 PM 55.0 °F - 35.1 °F 47% 29.94 in 10.0 mi Calm Calm - N/A   Clear
2:51 PM 57.9 °F - 37.0 °F 46% 29.91 in 10.0 mi Calm Calm - N/A   Clear
3:51 PM 60.1 °F - 36.0 °F 41% 29.88 in 10.0 mi NNW 3.5 mph - N/A   Clear
4:51 PM 59.0 °F - 36.0 °F 42% 29.86 in 10.0 mi SSE 9.2 mph - N/A   Clear
5:51 PM 53.1 °F - 37.0 °F 55% 29.87 in 10.0 mi SSE 3.5 mph - N/A   Clear
6:51 PM 48.9 °F - 36.0 °F 61% 29.88 in 10.0 mi NNW 4.6 mph - N/A   Clear
7:51 PM 46.0 °F 44.8 °F 36.0 °F 68% 29.89 in 10.0 mi NW 3.5 mph - N/A   Clear
8:51 PM 45.0 °F - 39.0 °F 80% 29.90 in 10.0 mi Calm Calm - N/A   Clear
9:51 PM 44.1 °F - 39.0 °F 82% 29.88 in 10.0 mi Calm Calm - N/A   Partly Cloudy
10:51 PM 45.0 °F - 37.0 °F 74% 29.86 in 10.0 mi Calm Calm - N/A   Overcast
11:51 PM 55.9 °F - 26.1 °F 32% 29.84 in 10.0 mi SSW 17.3 mph 38.0 mph N/A   Overcast